Location: Omaha
(41.2590°N, 95.9380°W)
Time: 08:39:44
(UTC-05:00)

Tiangong 2 - Pass Details

Date: 09 October 2017
Orbit: 388 x 391 km, 42.8° (Epoch: 23 October)

Event Time Altitude Azimuth Distance (km) Brightness Sun altitude
Exits shadow 05:28:24 20° 138° (SE) 973 3.4 -23.4°
Drops below altitude 10° 05:30:28 10° 98° (E) 1,420 4.9 -23.0°
Sets 05:32:53 0° 81° (E) 2,279 6.5 -22.6°
